Tucson Davis Monthan, AZ

2:59 PM MST on December 08, 2019 (GMT -0700)
Davis-Monthan Air Force Base

Weather History for KDMA - October, 2019

Change the Weather History Date:

Thursday, October 17, 2019

  Actual Average Record
Temperature  
Mean Temperature 78 °F -  
Max Temperature 91 °F 83 °F 96 °F (2001)
Min Temperature 66 °F 56 °F 41 °F (1998)
Cooling Degree Days 14    
Growing Degree Days 28 (Base 50)    
Moisture  
Dew Point 45 °F    
Average Humidity 30    
Maximum Humidity 45    
Minimum Humidity 21    
Precipitation  
Precipitation 0.00 in - - ()
Sea Level Pressure  
Sea Level Pressure 29.70 in    
Wind  
Wind Speed 11 mph (South)    
Max Wind Speed 16 mph    
Max Gust Speed 24 mph    
Visibility 10 miles    
Events      
Averages and records for this station are not official NWS values.
T = Trace of Precipitation, MM = Missing Value Source: NWS Daily Summary

Daily Weather History Graph

Daily Weather History Graph

Search for Another Location

Airport or City:

Astronomy

Oct. 17, 2019 Rise Set
Actual Time 6:28 AM MST 5:48 PM MST
Civil Twilight 6:03 AM MST 6:13 PM MST
Nautical Twilight 5:35 AM MST 6:41 PM MST
Astronomical Twilight 5:06 AM MST 7:10 PM MST
Moon 8:34 PM MST (10/17) 9:53 AM MST (10/17)
Length of Visible Light 12h 09m
Length of Day
11h 20m
Waning Gibbous, 86% of the Moon is Illuminated
Oct 17
Waning Gibbous
Oct 21
Last Quarter
Oct 27
New
Nov 4
First Quarter
Nov 12
Full

Hourly Weather History & Observations

Time (MST) Temp. Dew Point Humidity Pressure Visibility Wind Dir Wind Speed Gust Speed Precip Events Conditions
12:58 AM 73.6 °F 40.3 °F 30% 29.75 in 10.0 mi ESE 10.4 mph - N/A   Clear
1:58 AM 73.2 °F 40.8 °F 31% 29.75 in 10.0 mi East 6.9 mph - N/A   Clear
2:58 AM 73.0 °F 40.6 °F 31% 29.74 in 10.0 mi East 15.0 mph - N/A   Clear
3:58 AM 71.1 °F 41.2 °F 34% 29.74 in 10.0 mi East 15.0 mph 24.2 mph N/A   Clear
4:58 AM 68.2 °F 41.5 °F 38% 29.76 in 10.0 mi East 9.2 mph - N/A   Clear
5:58 AM 67.5 °F 41.5 °F 39% 29.76 in 10.0 mi East 13.8 mph - N/A   Clear
6:58 AM 66.0 °F 42.3 °F 42% 29.78 in 10.0 mi ESE 13.8 mph - N/A   Clear
7:58 AM 72.9 °F 42.8 °F 34% 29.78 in 10.0 mi East 15.0 mph - N/A   Clear
8:58 AM 77.7 °F 43.9 °F 30% 29.78 in 10.0 mi East 10.4 mph - N/A   Clear
9:58 AM 81.7 °F 45.3 °F 28% 29.75 in 10.0 mi East 6.9 mph - N/A   Clear
10:58 AM 85.6 °F 46.8 °F 26% 29.73 in 10.0 mi SSE 6.9 mph - N/A   Clear
11:58 AM 88.3 °F 46.9 °F 24% 29.71 in 10.0 mi South 12.7 mph - N/A   Clear
12:08 PM 87.8 °F 46.4 °F 24% 29.70 in 10.0 mi South 15.0 mph 23.0 mph N/A   Clear
12:30 PM 89.6 °F 48.2 °F 24% 29.68 in 10.0 mi South 13.8 mph 19.6 mph N/A   Clear
12:58 PM 90.5 °F 45.1 °F 21% 29.67 in 10.0 mi SSW 12.7 mph 21.9 mph N/A   Partly Cloudy
1:03 PM 89.6 °F 44.6 °F 21% 29.67 in 10.0 mi South 11.5 mph 21.9 mph N/A   Partly Cloudy
1:32 PM 91.4 °F 48.2 °F 23% 29.65 in 10.0 mi SSW 16.1 mph 23.0 mph N/A   Clear
1:58 PM 90.1 °F 48.4 °F 24% 29.64 in 10.0 mi SSW 10.4 mph - N/A   Scattered Clouds
2:09 PM 89.6 °F 48.2 °F 24% 29.63 in 10.0 mi WSW 13.8 mph 20.7 mph N/A   Mostly Cloudy
2:58 PM 89.1 °F 47.5 °F 24% 29.63 in 10.0 mi WSW 10.4 mph 18.4 mph N/A   Mostly Cloudy
3:58 PM 88.3 °F 46.9 °F 24% 29.63 in 10.0 mi WSW 11.5 mph 21.9 mph N/A   Partly Cloudy
4:58 PM 87.6 °F 44.1 °F 22% 29.62 in 10.0 mi West 10.4 mph - N/A   Clear
5:58 PM 83.3 °F 44.8 °F 26% 29.63 in 10.0 mi West 9.2 mph - N/A   Clear
6:58 PM 81.1 °F 43.0 °F 26% 29.64 in 10.0 mi WSW 9.2 mph - N/A   Clear
7:58 PM 77.0 °F 41.4 °F 28% 29.65 in 10.0 mi SSW 4.6 mph - N/A   Clear
8:58 PM 72.9 °F 42.8 °F 34% 29.67 in 10.0 mi SSW 10.4 mph - N/A   Clear
9:58 PM 71.4 °F 45.9 °F 40% 29.68 in 10.0 mi SSE 5.8 mph - N/A   Clear
10:58 PM 73.2 °F 48.0 °F 41% 29.68 in 10.0 mi South 11.5 mph - N/A   Clear
11:58 PM 70.5 °F 48.2 °F 45% 29.68 in 10.0 mi South 9.2 mph - N/A   Clear